FW8148 Weather Reports


time (UTC)temp
F
wind
direction
speed
knots
gust
knots
rain 1hr
in
rain 24hr
in
rain mn
in
humidity
%
barometer
mb
20260510015403 56 22 0.0 1.7 0.00 0.00 0.00 70 1010.6
20260510014503 57 21 0.9 3.5 0.00 0.00 0.00 69 1010.7
20260510013603 57 27 0.9 2.6 0.00 0.00 0.00 68 1010.8
20260510012703 57 16 0.9 3.5 0.00 0.00 0.00 69 1010.6
20260510011803 57 26 0.9 3.5 0.00 0.00 0.00 69 1010.9
20260510010903 57 25 0.9 2.6 0.00 0.00 0.00 69 1011.1
20260510010218 57 24 0.0 1.7 0.00 0.00 0.00 70 1011.0
20260510005403 57 21 0.0 1.7 0.00 0.00 0.00 70 1011.2
20260510004503 57 18 0.0 1.7 0.00 0.00 0.00 71 1011.0
20260510003818 57 19 0.0 2.6 0.00 0.00 0.00 70 1011.2
20260510002703 58 11 0.0 1.7 0.00 0.00 0.00 69 1011.6
20260510001803 58 1 0.0 2.6 0.00 0.00 0.00 68 1011.5
20260510001118 58 8 0.9 3.5 0.00 0.00 0.00 68 1011.5
20260510000003 58 20 0.9 3.5 0.00 0.00 0.00 68 1011.9
20260509235617 58 25 0.0 3.5 0.00 0.00 0.00 68 1011.8
20260509234503 59 11 0.0 1.7 0.00 0.00 0.00 68 1011.9
20260509233603 59 21 0.9 3.5 0.00 0.00 0.00 68 1012.0
20260509232703 59 17 0.9 3.5 0.00 0.00 0.00 67 1012.3
20260509231803 60 23 0.9 3.5 0.00 0.00 0.00 67 1012.0
20260509230903 60 12 0.9 6.1 0.00 0.00 0.00 66 1012.0
20260509230004 60 16 0.9 5.2 0.00 0.00 0.00 67 1012.2
20260509225403 60 21 0.9 5.2 0.00 0.00 0.00 66 1012.2
20260509224503 60 27 0.9 3.5 0.00 0.00 0.00 67 1012.5
20260509223603 60 11 0.9 6.1 0.00 0.00 0.00 67 1012.3
20260509222703 60 18 0.9 5.2 0.00 0.00 0.00 67 1012.2
20260509221803 60 21 0.9 5.2 0.00 0.00 0.00 67 1011.9
20260509220903 60 16 0.9 3.5 0.00 0.00 0.00 67 1012.3
20260509220218 60 18 0.0 2.6 0.00 0.00 0.00 68 1012.0
20260509215403 61 25 0.9 2.6 0.00 0.00 0.00 68 1012.0
20260509214503 61 18 0.9 5.2 0.00 0.00 0.00 67 1012.3
20260509213603 61 16 0.9 5.2 0.00 0.00 0.00 67 1012.0
20260509212703 61 19 0.9 3.5 0.00 0.00 0.00 67 1012.3
20260509211803 61 25 0.9 3.5 0.00 0.00 0.00 67 1012.5
20260509211117 62 14 0.9 3.5 0.00 0.00 0.00 67 1012.4
20260509210003 62 21 0.9 1.7 0.00 0.00 0.00 66 1012.2
20260509205403 62 18 0.0 1.7 0.00 0.00 0.00 67 1012.2
20260509204503 61 16 0.0 1.7 0.00 0.00 0.00 68 1012.2
20260509203603 61 17 0.0 1.7 0.00 0.00 0.00 69 1011.9
20260509202703 61 3 0.0 0.9 0.00 0.00 0.00 69 1012.2
20260509201803 61 14 0.0 0.9 0.00 0.00 0.00 70 1012.4
20260509200903 61 0 0.0 0.0 0.00 0.00 0.00 71 1012.2
20260509200003 61 0 0.0 0.0 0.00 0.00 0.00 70 1012.3
20260509195403 62 0 0.0 0.0 0.00 0.00 0.00 70 1012.0
20260509194503 63 16 0.0 0.9 0.00 0.00 0.00 67 1011.9
20260509193603 63 11 0.0 2.6 0.00 0.00 0.00 65 1011.7
20260509192919 64 11 0.0 1.7 0.00 0.00 0.00 65 1011.4
20260509191803 64 3 0.0 0.9 0.00 0.00 0.00 63 1011.6
20260509190903 65 18 0.0 2.6 0.00 0.00 0.00 63 1011.6
20260509190003 66 20 0.9 5.2 0.00 0.00 0.00 60 1011.7
20260509185403 66 15 1.7 5.2 0.00 0.00 0.00 59 1011.7
20260509184718 66 15 0.9 6.1 0.00 0.00 0.00 59 1011.7
20260509183603 67 18 0.9 5.2 0.00 0.00 0.00 60 1011.7
20260509182704 68 36 0.9 2.6 0.00 0.00 0.00 58 1011.6
20260509181803 68 35 0.9 2.6 0.00 0.00 0.00 57 1011.5
20260509180903 69 40 0.9 5.2 0.00 0.00 0.00 56 1011.6
20260509180003 70 39 0.9 5.2 0.00 0.00 0.00 56 1011.3
20260509175403 70 61 0.9 5.2 0.00 0.00 0.00 55 1011.4
20260509174503 70 63 0.9 5.2 0.00 0.00 0.00 54 1011.4
20260509173817 71 71 0.9 6.1 0.00 0.00 0.00 53 1011.6
20260509172703 71 67 1.7 6.1 0.00 0.00 0.00 53 1011.5
20260509171803 72 50 1.7 6.1 0.00 0.00 0.00 50 1011.2
20260509171119 72 55 1.7 5.2 0.00 0.00 0.00 50 1011.5
20260509170003 73 41 1.7 6.1 0.00 0.00 0.00 49 1011.5
20260509165618 73 54 1.7 6.1 0.00 0.00 0.00 48 1011.5
20260509164503 73 73 0.9 5.2 0.00 0.00 0.00 48 1011.9
20260509163603 73 34 1.7 7.0 0.00 0.00 0.00 47 1011.6
20260509162704 73 54 1.7 7.0 0.00 0.00 0.00 47 1011.7
20260509161803 73 71 0.9 3.5 0.00 0.00 0.00 48 1011.8
20260509160903 74 47 1.7 5.2 0.00 0.00 0.00 47 1011.7
20260509160003 73 28 0.9 5.2 0.00 0.00 0.00 48 1011.8
20260509155403 72 48 0.9 3.5 0.00 0.00 0.00 50 1011.8
20260509154503 72 60 0.9 2.6 0.00 0.00 0.00 50 1012.2
20260509153603 72 52 0.9 2.6 0.00 0.00 0.00 49 1012.2
20260509152705 74 59 1.7 6.1 0.00 0.00 0.00 47 1012.4
20260509151803 76 71 1.7 6.1 0.00 0.00 0.00 45 1012.4
20260509151116 76 66 1.7 5.2 0.00 0.00 0.00 43 1012.4
20260509150003 76 91 1.7 5.2 0.00 0.00 0.00 43 1011.9
20260509145403 76 47 1.7 5.2 0.00 0.00 0.00 42 1012.4
20260509144503 75 44 1.7 5.2 0.00 0.00 0.00 42 1012.3
20260509143604 75 65 1.7 6.1 0.00 0.00 0.00 46 1012.4
20260509142703 73 72 1.7 3.5 0.00 0.00 0.00 47 1012.4
20260509141803 74 52 1.7 6.1 0.00 0.00 0.00 47 1012.5
20260509140903 73 71 0.9 3.5 0.00 0.00 0.00 47 1012.3
20260509140003 74 69 1.7 3.5 0.00 0.00 0.00 47 1012.4
20260509135617 74 68 1.7 6.1 0.00 0.00 0.00 48 1012.5
20260509134503 76 89 1.7 5.2 0.00 0.00 0.00 44 1012.4
20260509133603 75 95 1.7 6.1 0.00 0.00 0.00 46 1012.4
20260509132705 73 80 1.7 6.1 0.00 0.00 0.00 47 1012.7
20260509131803 76 74 1.7 3.5 0.00 0.00 0.00 47 1012.6
20260509131118 75 58 1.7 7.0 0.00 0.00 0.00 48 1012.8
20260509130004 75 63 1.7 5.2 0.00 0.00 0.00 49 1012.8
20260509125616 74 66 1.7 5.2 0.00 0.00 0.00 49 1013.2
20260509124503 73 83 1.7 7.0 0.00 0.00 0.00 51 1013.2
20260509123603 73 76 1.7 3.5 0.00 0.00 0.00 50 1013.0
20260509122703 73 74 1.7 6.1 0.00 0.00 0.00 51 1013.1
20260509121803 73 65 1.7 7.8 0.00 0.00 0.00 50 1013.2
20260509120903 73 50 2.6 7.8 0.00 0.00 0.00 51 1013.3
20260509120003 73 86 1.7 6.1 0.00 0.00 0.00 51 1013.2
20260509115403 74 78 1.7 7.0 0.00 0.00 0.00 54 1013.6
20260509114503 73 85 1.7 7.8 0.00 0.00 0.00 54 1013.5
20260509113817 74 84 1.7 7.8 0.00 0.00 0.00 52 1013.7
20260509112703 72 65 2.6 7.0 0.00 0.00 0.00 53 1013.9
20260509111803 72 71 2.6 8.7 0.00 0.00 0.00 54 1014.0
20260509111117 72 63 1.7 7.0 0.00 0.00 0.00 53 1013.9
20260509110003 72 74 1.7 6.1 0.00 0.00 0.00 56 1013.8
20260509105403 72 79 1.7 5.2 0.00 0.00 0.00 55 1014.1
20260509104719 72 53 1.7 6.1 0.00 0.00 0.00 57 1014.0
20260509103603 72 67 1.7 5.2 0.00 0.00 0.00 60 1014.3
20260509102703 70 45 0.9 3.5 0.00 0.00 0.00 64 1014.3
20260509101803 71 60 0.9 5.2 0.00 0.00 0.00 63 1014.4
20260509100904 70 50 1.7 5.2 0.00 0.00 0.00 64 1014.5
20260509100004 69 58 1.7 3.5 0.00 0.00 0.00 64 1014.3
20260509095403 69 49 1.7 6.1 0.00 0.00 0.00 65 1014.4
20260509094503 68 46 1.7 6.1 0.00 0.00 0.00 66 1014.4
20260509093603 67 26 1.7 5.2 0.00 0.00 0.00 67 1014.4
20260509092703 68 53 1.7 5.2 0.00 0.00 0.00 66 1014.4
20260509091803 67 47 1.7 6.1 0.00 0.00 0.00 67 1014.5
20260509090903 66 43 1.7 6.1 0.00 0.00 0.00 68 1014.6
20260509090003 65 51 1.7 6.1 0.00 0.00 0.00 71 1014.4
20260509085403 66 63 0.9 3.5 0.00 0.00 0.00 68 1014.5
20260509084503 65 48 0.9 2.6 0.00 0.00 0.00 71 1014.6
20260509083604 64 59 0.9 5.2 0.00 0.00 0.00 72 1014.5
20260509082917 64 50 1.7 5.2 0.00 0.00 0.00 72 1014.6
20260509081804 62 44 0.9 3.5 0.00 0.00 0.00 73 1014.5
20260509080903 61 35 1.7 5.2 0.00 0.00 0.00 75 1014.8
20260509080003 61 39 0.9 5.2 0.00 0.00 0.00 75 1014.7
20260509075623 60 45 1.7 6.1 0.00 0.00 0.00 76 1014.8
20260509074503 59 44 1.7 5.2 0.00 0.00 0.00 77 1014.8
20260509073603 59 53 0.9 3.5 0.00 0.00 0.00 77 1015.0
20260509072703 58 42 0.9 3.5 0.00 0.00 0.00 79 1014.8
20260509072018 58 48 0.9 3.5 0.00 0.00 0.00 78 1015.0
20260509070903 57 39 0.9 5.2 0.00 0.00 0.00 83 1014.9
20260509070004 56 55 0.9 3.5 0.00 0.00 0.00 86 1015.0
20260509065403 55 43 0.9 3.5 0.00 0.00 0.00 85 1015.1
20260509064503 54 31 0.9 5.2 0.00 0.00 0.00 87 1014.8
20260509063603 53 49 0.9 2.6 0.00 0.00 0.00 88 1015.0
20260509062705 52 22 0.9 6.1 0.00 0.00 0.00 89 1014.8
20260509062018 52 61 0.9 1.7 0.00 0.00 0.00 92 1015.0
20260509061121 50 23 0.0 1.7 0.00 0.00 0.00 97 1014.7
20260509060004 48 17 0.0 0.9 0.00 0.00 0.00 99 1014.6
20260509055403 47 7 0.0 0.9 0.00 0.00 0.00 99 1014.7
20260509054503 46 0 0.0 0.0 0.00 0.00 0.00 99 1014.9
20260509053817 45 0 0.0 0.0 0.00 0.00 0.00 99 1014.7
20260509052703 43 0 0.0 0.0 0.00 0.00 0.00 99 1014.7
20260509052017 43 0 0.0 0.0 0.00 0.00 0.00 99 1014.5
20260509050903 42 0 0.0 0.0 0.00 0.00 0.00 98 1014.6
20260509050003 42 0 0.0 0.0 0.00 0.00 0.00 99 1014.5
20260509045403 42 0 0.0 0.0 0.00 0.00 0.00 99 1014.5
20260509044503 42 0 0.0 0.0 0.00 0.00 0.00 99 1014.6
20260509043603 41 0 0.0 0.0 0.00 0.00 0.00 99 1014.6
20260509042703 41 0 0.0 0.0 0.00 0.00 0.00 98 1014.6
20260509041803 41 0 0.0 0.0 0.00 0.00 0.00 98 1014.5
20260509041118 41 0 0.0 0.0 0.00 0.00 0.00 98 1014.5
20260509040218 41 0 0.0 0.0 0.00 0.00 0.00 98 1014.5
20260509035403 41 0 0.0 0.0 0.00 0.00 0.00 98 1014.5
20260509034505 41 0 0.0 0.0 0.00 0.00 0.00 98 1014.5
20260509033603 41 0 0.0 0.0 0.00 0.00 0.00 98 1014.6
20260509032703 41 0 0.0 0.0 0.00 0.00 0.00 98 1014.5
20260509031803 41 0 0.0 0.0 0.00 0.00 0.00 98 1014.6
20260509031118 41 0 0.0 0.0 0.00 0.00 0.00 98 1014.8
20260509030003 41 0 0.0 0.0 0.00 0.00 0.00 98 1014.8
20260509025403 42 0 0.0 0.0 0.00 0.00 0.00 98 1014.7
20260509024503 42 0 0.0 0.0 0.00 0.00 0.00 98 1014.6
20260509023818 42 0 0.0 0.0 0.00 0.00 0.00 98 1014.6
20260509022703 42 0 0.0 0.0 0.00 0.00 0.00 98 1014.7
20260509021803 42 0 0.0 0.0 0.00 0.00 0.00 98 1014.8
20260509020903 42 0 0.0 0.0 0.00 0.00 0.00 98 1014.6